| time (UTC) | temp C | wind direction | speed KPH | gust KPH | rain 1hr cm | rain 24hr cm | rain mn cm | humidity % | barometer mb |
| 20260906172308 | 37 | 88 | 0.0 | 6.4 | 0.00 | 0.00 | 0.00 | 38 | 1017.0 |
| 20260906171808 | 37 | 125 | 3.2 | 4.8 | 0.00 | 0.00 | 0.00 | 38 | 1016.8 |
| 20260906171303 | 37 | 76 | 1.6 | 6.4 | 0.00 | 0.00 | 0.00 | 37 | 1016.9 |
| 20260906170758 | 36 | 92 | 3.2 | 6.4 | 0.00 | 0.00 | 0.00 | 40 | 1017.1 |
| 20260906170254 | 36 | 214 | 3.2 | 4.8 | 0.00 | 0.00 | 0.00 | 38 | 1017.0 |
| 20260906165750 | 36 | 66 | 0.0 | 6.4 | 0.00 | 0.00 | 0.00 | 42 | 1017.1 |
| 20260906165250 | 36 | 7 | 6.4 | 11.3 | 0.00 | 0.00 | 0.00 | 41 | 1017.0 |
| 20260906164749 | 36 | 359 | 3.2 | 4.8 | 0.00 | 0.00 | 0.00 | 41 | 1017.2 |
| 20260906164244 | 36 | 1 | 6.4 | 6.4 | 0.00 | 0.00 | 0.00 | 41 | 1017.1 |
| 20260906163740 | 36 | 163 | 3.2 | 4.8 | 0.00 | 0.00 | 0.00 | 42 | 1017.1 |
| 20260906163236 | 36 | 82 | 1.6 | 3.2 | 0.00 | 0.00 | 0.00 | 42 | 1017.2 |
| 20260906162733 | 35 | 73 | 1.6 | 4.8 | 0.00 | 0.00 | 0.00 | 43 | 1017.6 |
| 20260906162227 | 36 | 173 | 6.4 | 9.7 | 0.00 | 0.00 | 0.00 | 43 | 1017.3 |
| 20260906161722 | 36 | 98 | 1.6 | 4.8 | 0.00 | 0.00 | 0.00 | 42 | 1017.3 |
| 20260906161222 | 36 | 86 | 1.6 | 3.2 | 0.00 | 0.00 | 0.00 | 42 | 1017.3 |
| 20260906160720 | 36 | 112 | 3.2 | 4.8 | 0.00 | 0.00 | 0.00 | 42 | 1017.3 |
| 20260906160220 | 35 | 16 | 1.6 | 3.2 | 0.00 | 0.00 | 0.00 | 43 | 1017.2 |
| 20260906155717 | 35 | 92 | 0.0 | 1.6 | 0.00 | 0.00 | 0.00 | 46 | 1017.3 |
| 20260906155213 | 35 | 87 | 1.6 | 4.8 | 0.00 | 0.00 | 0.00 | 43 | 1017.2 |
| 20260906154708 | 35 | 89 | 0.0 | 3.2 | 0.00 | 0.00 | 0.00 | 42 | 1017.1 |
| 20260906154209 | 35 | 116 | 1.6 | 4.8 | 0.00 | 0.00 | 0.00 | 45 | 1017.3 |
| 20260906153707 | 35 | 123 | 1.6 | 3.2 | 0.00 | 0.00 | 0.00 | 47 | 1017.3 |
| 20260906153202 | 35 | 101 | 0.0 | 3.2 | 0.00 | 0.00 | 0.00 | 46 | 1017.2 |
| 20260906152656 | 35 | 97 | 1.6 | 4.8 | 0.00 | 0.00 | 0.00 | 44 | 1017.2 |
| 20260906152150 | 35 | 83 | 0.0 | 1.6 | 0.00 | 0.00 | 0.00 | 45 | 1017.3 |
| 20260906151645 | 34 | 92 | 1.6 | 3.2 | 0.00 | 0.00 | 0.00 | 45 | 1017.2 |
| 20260906151141 | 33 | 87 | 1.6 | 3.2 | 0.00 | 0.00 | 0.00 | 45 | 1017.3 |
| 20260906150636 | 34 | 102 | 0.0 | 1.6 | 0.00 | 0.00 | 0.00 | 46 | 1016.9 |
| 20260906150132 | 34 | 80 | 0.0 | 1.6 | 0.00 | 0.00 | 0.00 | 45 | 1017.1 |
| 20260906145630 | 33 | 78 | 0.0 | 1.6 | 0.00 | 0.00 | 0.00 | 49 | 1017.1 |
| 20260906145125 | 33 | 81 | 1.6 | 1.6 | 0.00 | 0.00 | 0.00 | 49 | 1017.2 |
| 20260906144620 | 33 | 94 | 0.0 | 3.2 | 0.00 | 0.00 | 0.00 | 50 | 1017.1 |
| 20260906144115 | 33 | 65 | 0.0 | 1.6 | 0.00 | 0.00 | 0.00 | 54 | 1017.2 |
| 20260906143615 | 32 | 133 | 0.0 | 1.6 | 0.00 | 0.00 | 0.00 | 54 | 1017.1 |
| 20260906143112 | 32 | 135 | 1.6 | 3.2 | 0.00 | 0.00 | 0.00 | 53 | 1017.1 |
| 20260906142610 | 32 | 102 | 0.0 | 1.6 | 0.00 | 0.00 | 0.00 | 55 | 1017.0 |
| 20260906142106 | 32 | 97 | 0.0 | 1.6 | 0.00 | 0.00 | 0.00 | 54 | 1017.2 |
| 20260906141605 | 32 | 88 | 1.6 | 1.6 | 0.00 | 0.00 | 0.00 | 54 | 1017.1 |
| 20260906141101 | 31 | 87 | 0.0 | 1.6 | 0.00 | 0.00 | 0.00 | 56 | 1017.3 |
| 20260906140600 | 30 | 87 | 0.0 | 1.6 | 0.00 | 0.00 | 0.00 | 57 | 1017.2 |
| 20260906140100 | 30 | 73 | 0.0 | 1.6 | 0.00 | 0.00 | 0.00 | 59 | 1017.2 |
| 20260906135557 | 30 | 130 | 3.2 | 3.2 | 0.00 | 0.00 | 0.00 | 58 | 1017.2 |
| 20260906135053 | 30 | 114 | 1.6 | 1.6 | 0.00 | 0.00 | 0.00 | 61 | 1017.1 |
| 20260906134548 | 29 | 118 | 1.6 | 3.2 | 0.00 | 0.00 | 0.00 | 63 | 1017.0 |
| 20260906134043 | 28 | 93 | 1.6 | 1.6 | 0.00 | 0.00 | 0.00 | 64 | 1017.1 |
| 20260906133539 | 28 | 85 | 0.0 | 1.6 | 0.00 | 0.00 | 0.00 | 65 | 1016.9 |
| 20260906133034 | 28 | 92 | 1.6 | 3.2 | 0.00 | 0.00 | 0.00 | 65 | 1017.0 |
| 20260906132529 | 27 | 92 | 0.0 | 1.6 | 0.00 | 0.00 | 0.00 | 68 | 1016.8 |
| 20260906132025 | 26 | 87 | 0.0 | 1.6 | 0.00 | 0.00 | 0.00 | 69 | 1017.1 |
| 20260906131520 | 26 | 77 | 0.0 | 0.0 | 0.00 | 0.00 | 0.00 | 75 | 1016.9 |
| 20260906131015 | 25 | 71 | 0.0 | 0.0 | 0.00 | 0.00 | 0.00 | 77 | 1016.7 |
| 20260906130515 | 25 | 71 | 0.0 | 0.0 | 0.00 | 0.00 | 0.00 | 78 | 1017.0 |
| 20260906130010 | 25 | 71 | 0.0 | 0.0 | 0.00 | 0.00 | 0.00 | 79 | 1016.8 |
| 20260906125507 | 23 | 71 | 0.0 | 0.0 | 0.00 | 0.00 | 0.00 | 81 | 1016.7 |
| 20260906125007 | 23 | 71 | 0.0 | 0.0 | 0.00 | 0.00 | 0.00 | 83 | 1016.6 |
| 20260906124503 | 23 | 71 | 0.0 | 0.0 | 0.00 | 0.00 | 0.00 | 83 | 1016.6 |
| 20260906123957 | 22 | 86 | 0.0 | 0.0 | 0.00 | 0.00 | 0.00 | 85 | 1016.7 |
| 20260906123456 | 22 | 87 | 0.0 | 0.0 | 0.00 | 0.00 | 0.00 | 85 | 1016.5 |
| 20260906122956 | 22 | 87 | 0.0 | 0.0 | 0.00 | 0.00 | 0.00 | 86 | 1016.6 |
| 20260906122451 | 22 | 87 | 0.0 | 0.0 | 0.00 | 0.00 | 0.00 | 87 | 1016.5 |
| 20260906121948 | 22 | 87 | 0.0 | 0.0 | 0.00 | 0.00 | 0.00 | 86 | 1016.4 |
| 20260906121444 | 22 | 87 | 0.0 | 0.0 | 0.00 | 0.00 | 0.00 | 87 | 1016.2 |
| 20260906120940 | 22 | 87 | 0.0 | 0.0 | 0.00 | 0.00 | 0.00 | 87 | 1016.2 |
| 20260906120435 | 22 | 87 | 0.0 | 0.0 | 0.00 | 0.00 | 0.00 | 86 | 1016.2 |
| 20260906115931 | 22 | 87 | 0.0 | 0.0 | 0.00 | 0.00 | 0.00 | 86 | 1016.0 |
| 20260906115427 | 22 | 87 | 0.0 | 0.0 | 0.00 | 0.00 | 0.00 | 86 | 1016.0 |
| 20260906114927 | 22 | 87 | 0.0 | 0.0 | 0.00 | 0.00 | 0.00 | 86 | 1015.9 |
| 20260906114427 | 22 | 87 | 0.0 | 0.0 | 0.00 | 0.00 | 0.00 | 85 | 1016.0 |
| 20260906113923 | 22 | 87 | 0.0 | 0.0 | 0.00 | 0.00 | 0.00 | 85 | 1015.8 |
| 20260906113421 | 22 | 87 | 0.0 | 0.0 | 0.00 | 0.00 | 0.00 | 85 | 1016.0 |
| 20260906112917 | 22 | 87 | 0.0 | 0.0 | 0.00 | 0.00 | 0.00 | 85 | 1015.8 |
| 20260906112412 | 22 | 87 | 0.0 | 0.0 | 0.00 | 0.00 | 0.00 | 85 | 1015.9 |
| 20260906111908 | 22 | 87 | 0.0 | 0.0 | 0.00 | 0.00 | 0.00 | 84 | 1015.9 |
| 20260906111407 | 22 | 87 | 0.0 | 0.0 | 0.00 | 0.00 | 0.00 | 85 | 1015.7 |
| 20260906110902 | 22 | 87 | 0.0 | 0.0 | 0.00 | 0.00 | 0.00 | 85 | 1015.7 |
| 20260906110358 | 22 | 87 | 0.0 | 0.0 | 0.00 | 0.00 | 0.00 | 85 | 1015.8 |
| 20260906105857 | 22 | 87 | 0.0 | 0.0 | 0.00 | 0.00 | 0.00 | 85 | 1015.9 |
| 20260906105353 | 22 | 87 | 0.0 | 0.0 | 0.00 | 0.00 | 0.00 | 85 | 1015.7 |
| 20260906104848 | 22 | 87 | 0.0 | 0.0 | 0.00 | 0.00 | 0.00 | 85 | 1015.8 |
| 20260906104347 | 22 | 87 | 0.0 | 0.0 | 0.00 | 0.00 | 0.00 | 85 | 1015.8 |
| 20260906103845 | 22 | 87 | 0.0 | 0.0 | 0.00 | 0.00 | 0.00 | 84 | 1015.6 |
| 20260906103344 | 22 | 87 | 0.0 | 0.0 | 0.00 | 0.00 | 0.00 | 84 | 1015.6 |
| 20260906102840 | 22 | 87 | 0.0 | 0.0 | 0.00 | 0.00 | 0.00 | 84 | 1015.9 |
| 20260906102338 | 22 | 87 | 0.0 | 0.0 | 0.00 | 0.00 | 0.00 | 83 | 1015.8 |
| 20260906101834 | 22 | 87 | 0.0 | 0.0 | 0.00 | 0.00 | 0.00 | 83 | 1015.6 |
| 20260906101329 | 22 | 87 | 0.0 | 0.0 | 0.00 | 0.00 | 0.00 | 83 | 1015.7 |
| 20260906100825 | 22 | 87 | 0.0 | 0.0 | 0.00 | 0.00 | 0.00 | 83 | 1015.7 |
| 20260906100324 | 22 | 87 | 0.0 | 0.0 | 0.00 | 0.00 | 0.00 | 82 | 1015.5 |
| 20260906095819 | 22 | 87 | 0.0 | 0.0 | 0.00 | 0.00 | 0.00 | 82 | 1015.6 |
| 20260906095314 | 23 | 87 | 0.0 | 0.0 | 0.00 | 0.00 | 0.00 | 81 | 1015.5 |
| 20260906094814 | 23 | 87 | 0.0 | 0.0 | 0.00 | 0.00 | 0.00 | 81 | 1015.5 |
| 20260906094309 | 23 | 87 | 0.0 | 0.0 | 0.00 | 0.00 | 0.00 | 81 | 1015.6 |
| 20260906093805 | 23 | 87 | 0.0 | 0.0 | 0.00 | 0.00 | 0.00 | 81 | 1015.7 |
| 20260906093301 | 23 | 87 | 0.0 | 0.0 | 0.00 | 0.00 | 0.00 | 81 | 1015.6 |
| 20260906092756 | 23 | 87 | 0.0 | 0.0 | 0.00 | 0.00 | 0.00 | 80 | 1015.6 |
| 20260906092256 | 23 | 87 | 0.0 | 0.0 | 0.00 | 0.00 | 0.00 | 80 | 1015.4 |
| 20260906091752 | 23 | 87 | 0.0 | 0.0 | 0.00 | 0.00 | 0.00 | 80 | 1015.5 |
| 20260906091248 | 23 | 87 | 0.0 | 0.0 | 0.00 | 0.00 | 0.00 | 80 | 1015.3 |
| 20260906090744 | 23 | 87 | 0.0 | 0.0 | 0.00 | 0.00 | 0.00 | 79 | 1015.4 |
| 20260906090243 | 23 | 87 | 0.0 | 0.0 | 0.00 | 0.00 | 0.00 | 79 | 1015.3 |
| 20260906085742 | 23 | 87 | 0.0 | 0.0 | 0.00 | 0.00 | 0.00 | 79 | 1015.5 |
| 20260906085242 | 23 | 87 | 0.0 | 0.0 | 0.00 | 0.00 | 0.00 | 78 | 1015.4 |
| 20260906084737 | 23 | 87 | 0.0 | 0.0 | 0.00 | 0.00 | 0.00 | 78 | 1015.2 |
| 20260906084236 | 23 | 87 | 0.0 | 0.0 | 0.00 | 0.00 | 0.00 | 78 | 1015.3 |
| 20260906083731 | 23 | 87 | 0.0 | 0.0 | 0.00 | 0.00 | 0.00 | 77 | 1015.2 |
| 20260906083227 | 23 | 87 | 0.0 | 0.0 | 0.00 | 0.00 | 0.00 | 77 | 1015.3 |
| 20260906082722 | 23 | 87 | 0.0 | 0.0 | 0.00 | 0.00 | 0.00 | 76 | 1015.5 |
| 20260906082217 | 23 | 87 | 0.0 | 0.0 | 0.00 | 0.00 | 0.00 | 76 | 1015.3 |
| 20260906081713 | 24 | 87 | 0.0 | 0.0 | 0.00 | 0.00 | 0.00 | 76 | 1015.3 |
| 20260906081208 | 24 | 87 | 0.0 | 0.0 | 0.00 | 0.00 | 0.00 | 75 | 1015.2 |
| 20260906080704 | 24 | 87 | 0.0 | 0.0 | 0.00 | 0.00 | 0.00 | 75 | 1015.3 |
| 20260906080200 | 24 | 87 | 0.0 | 0.0 | 0.00 | 0.00 | 0.00 | 74 | 1015.3 |
| 20260906075700 | 24 | 87 | 0.0 | 0.0 | 0.00 | 0.00 | 0.00 | 74 | 1015.3 |
| 20260906075154 | 25 | 87 | 0.0 | 0.0 | 0.00 | 0.00 | 0.00 | 74 | 1015.3 |
| 20260906074650 | 25 | 87 | 0.0 | 0.0 | 0.00 | 0.00 | 0.00 | 73 | 1015.2 |
| 20260906074149 | 25 | 87 | 0.0 | 0.0 | 0.00 | 0.00 | 0.00 | 73 | 1015.3 |
| 20260906073644 | 25 | 87 | 0.0 | 0.0 | 0.00 | 0.00 | 0.00 | 72 | 1015.1 |
| 20260906073139 | 25 | 87 | 0.0 | 0.0 | 0.00 | 0.00 | 0.00 | 72 | 1015.3 |
| 20260906072634 | 25 | 87 | 0.0 | 0.0 | 0.00 | 0.00 | 0.00 | 71 | 1015.3 |
| 20260906072130 | 25 | 87 | 0.0 | 0.0 | 0.00 | 0.00 | 0.00 | 70 | 1015.3 |
| 20260906071626 | 25 | 87 | 0.0 | 0.0 | 0.00 | 0.00 | 0.00 | 71 | 1015.5 |
| 20260906071121 | 25 | 87 | 0.0 | 0.0 | 0.00 | 0.00 | 0.00 | 71 | 1015.3 |
| 20260906070617 | 25 | 87 | 0.0 | 0.0 | 0.00 | 0.00 | 0.00 | 72 | 1015.4 |
| 20260906070113 | 25 | 87 | 0.0 | 0.0 | 0.00 | 0.00 | 0.00 | 71 | 1015.4 |
| 20260906065612 | 25 | 87 | 0.0 | 0.0 | 0.00 | 0.00 | 0.00 | 71 | 1015.4 |
| 20260906065108 | 25 | 87 | 0.0 | 0.0 | 0.00 | 0.00 | 0.00 | 70 | 1015.5 |
| 20260906064603 | 25 | 87 | 0.0 | 0.0 | 0.00 | 0.00 | 0.00 | 70 | 1015.5 |
| 20260906064058 | 25 | 87 | 0.0 | 0.0 | 0.00 | 0.00 | 0.00 | 70 | 1015.5 |
| 20260906063553 | 25 | 87 | 0.0 | 0.0 | 0.00 | 0.00 | 0.00 | 69 | 1015.6 |
| 20260906063050 | 26 | 87 | 0.0 | 0.0 | 0.00 | 0.00 | 0.00 | 68 | 1015.7 |
| 20260906062545 | 26 | 87 | 0.0 | 0.0 | 0.00 | 0.00 | 0.00 | 69 | 1015.8 |
| 20260906062044 | 26 | 87 | 0.0 | 0.0 | 0.00 | 0.00 | 0.00 | 69 | 1015.7 |
| 20260906061541 | 26 | 88 | 0.0 | 1.6 | 0.00 | 0.00 | 0.00 | 68 | 1015.7 |
| 20260906061039 | 26 | 87 | 0.0 | 0.0 | 0.00 | 0.00 | 0.00 | 67 | 1015.6 |
| 20260906060536 | 26 | 87 | 0.0 | 0.0 | 0.00 | 0.00 | 0.00 | 68 | 1015.6 |
| 20260906060033 | 26 | 87 | 0.0 | 0.0 | 0.00 | 0.00 | 0.00 | 68 | 1015.6 |
| 20260906055529 | 26 | 87 | 0.0 | 0.0 | 0.00 | 0.00 | 0.00 | 67 | 1015.6 |
| 20260906055024 | 26 | 87 | 0.0 | 0.0 | 0.00 | 0.00 | 0.00 | 66 | 1015.6 |
| 20260906054524 | 26 | 87 | 0.0 | 0.0 | 0.00 | 0.00 | 0.00 | 67 | 1015.6 |
| 20260906054019 | 26 | 87 | 0.0 | 0.0 | 0.00 | 0.00 | 0.00 | 66 | 1015.5 |
| 20260906053516 | 26 | 87 | 0.0 | 0.0 | 0.00 | 0.00 | 0.00 | 66 | 1015.4 |
| 20260906053011 | 26 | 88 | 0.0 | 0.0 | 0.00 | 0.00 | 0.00 | 66 | 1015.5 |
| 20260906052507 | 26 | 87 | 0.0 | 0.0 | 0.00 | 0.00 | 0.00 | 66 | 1015.4 |
| 20260906052004 | 26 | 87 | 0.0 | 0.0 | 0.00 | 0.00 | 0.00 | 66 | 1015.3 |
| 20260906051459 | 26 | 87 | 0.0 | 0.0 | 0.00 | 0.00 | 0.00 | 65 | 1015.3 |
| 20260906050954 | 26 | 87 | 0.0 | 0.0 | 0.00 | 0.00 | 0.00 | 65 | 1015.2 |
| 20260906050454 | 26 | 87 | 0.0 | 0.0 | 0.00 | 0.00 | 0.00 | 66 | 1015.3 |
| 20260906045953 | 26 | 87 | 0.0 | 0.0 | 0.00 | 0.00 | 0.00 | 66 | 1015.3 |
| 20260906045452 | 26 | 88 | 1.6 | 1.6 | 0.00 | 0.00 | 0.00 | 68 | 1015.3 |
| 20260906044948 | 26 | 79 | 0.0 | 0.0 | 0.00 | 0.00 | 0.00 | 68 | 1015.3 |
| 20260906044443 | 26 | 79 | 0.0 | 0.0 | 0.00 | 0.00 | 0.00 | 68 | 1015.3 |
| 20260906043939 | 26 | 79 | 0.0 | 0.0 | 0.00 | 0.00 | 0.00 | 67 | 1015.4 |
| 20260906043435 | 26 | 79 | 0.0 | 0.0 | 0.00 | 0.00 | 0.00 | 66 | 1015.5 |
| 20260906042930 | 26 | 79 | 0.0 | 0.0 | 0.00 | 0.00 | 0.00 | 67 | 1015.4 |
| 20260906042429 | 26 | 79 | 0.0 | 0.0 | 0.00 | 0.00 | 0.00 | 66 | 1015.6 |
| 20260906041924 | 26 | 79 | 0.0 | 0.0 | 0.00 | 0.00 | 0.00 | 65 | 1015.5 |
| 20260906041421 | 26 | 79 | 0.0 | 0.0 | 0.00 | 0.00 | 0.00 | 65 | 1015.3 |
| 20260906040920 | 26 | 79 | 0.0 | 0.0 | 0.00 | 0.00 | 0.00 | 66 | 1015.5 |
| 20260906040415 | 26 | 79 | 0.0 | 0.0 | 0.00 | 0.00 | 0.00 | 65 | 1015.3 |
| 20260906035911 | 26 | 79 | 0.0 | 0.0 | 0.00 | 0.00 | 0.00 | 66 | 1015.5 |
| 20260906035407 | 27 | 79 | 0.0 | 0.0 | 0.00 | 0.00 | 0.00 | 66 | 1015.4 |
| 20260906034902 | 27 | 79 | 0.0 | 0.0 | 0.00 | 0.00 | 0.00 | 66 | 1015.4 |
| 20260906034401 | 27 | 79 | 0.0 | 0.0 | 0.00 | 0.00 | 0.00 | 65 | 1015.5 |
| 20260906033857 | 27 | 79 | 0.0 | 0.0 | 0.00 | 0.00 | 0.00 | 65 | 1015.5 |
| 20260906033357 | 27 | 79 | 0.0 | 0.0 | 0.00 | 0.00 | 0.00 | 64 | 1015.3 |
| 20260906032853 | 27 | 79 | 0.0 | 0.0 | 0.00 | 0.00 | 0.00 | 64 | 1015.5 |
| 20260906032349 | 27 | 79 | 0.0 | 0.0 | 0.00 | 0.00 | 0.00 | 63 | 1015.2 |
| 20260906031844 | 27 | 79 | 0.0 | 0.0 | 0.00 | 0.00 | 0.00 | 62 | 1015.2 |
| 20260906031339 | 27 | 80 | 0.0 | 0.0 | 0.00 | 0.00 | 0.00 | 62 | 1015.3 |
| 20260906030839 | 28 | 79 | 0.0 | 0.0 | 0.00 | 0.00 | 0.00 | 61 | 1015.2 |
| 20260906030335 | 28 | 80 | 0.0 | 0.0 | 0.00 | 0.00 | 0.00 | 61 | 1015.3 |
| 20260906025835 | 28 | 80 | 0.0 | 0.0 | 0.00 | 0.00 | 0.00 | 60 | 1015.3 |
| 20260906025329 | 28 | 58 | 0.0 | 0.0 | 0.00 | 0.00 | 0.00 | 60 | 1015.2 |
| 20260906024828 | 28 | 58 | 0.0 | 0.0 | 0.00 | 0.00 | 0.00 | 59 | 1015.2 |
| 20260906024327 | 28 | 58 | 0.0 | 0.0 | 0.00 | 0.00 | 0.00 | 58 | 1014.9 |
| 20260906023823 | 29 | 58 | 0.0 | 0.0 | 0.00 | 0.00 | 0.00 | 57 | 1014.9 |
| 20260906023318 | 29 | 95 | 1.6 | 1.6 | 0.00 | 0.00 | 0.00 | 57 | 1014.7 |
| 20260906022814 | 29 | 91 | 0.0 | 3.2 | 0.00 | 0.00 | 0.00 | 56 | 1015.0 |
| 20260906022309 | 30 | 117 | 0.0 | 1.6 | 0.00 | 0.00 | 0.00 | 55 | 1015.0 |
| 20260906021805 | 30 | 102 | 1.6 | 1.6 | 0.00 | 0.00 | 0.00 | 55 | 1014.9 |
| 20260906021304 | 30 | 97 | 1.6 | 3.2 | 0.00 | 0.00 | 0.00 | 55 | 1014.9 |
| 20260906020759 | 30 | 113 | 1.6 | 1.6 | 0.00 | 0.00 | 0.00 | 54 | 1014.6 |
| 20260906020258 | 30 | 113 | 1.6 | 1.6 | 0.00 | 0.00 | 0.00 | 54 | 1014.5 |
| 20260906015758 | 30 | 51 | 1.6 | 3.2 | 0.00 | 0.00 | 0.00 | 53 | 1014.4 |
| 20260906015257 | 30 | 84 | 1.6 | 3.2 | 0.00 | 0.00 | 0.00 | 53 | 1014.5 |
| 20260906014751 | 30 | 54 | 0.0 | 1.6 | 0.00 | 0.00 | 0.00 | 52 | 1014.3 |
| 20260906014247 | 31 | 97 | 0.0 | 1.6 | 0.00 | 0.00 | 0.00 | 51 | 1014.2 |
| 20260906013743 | 31 | 99 | 0.0 | 1.6 | 0.00 | 0.00 | 0.00 | 51 | 1014.1 |
| 20260906013243 | 31 | 88 | 1.6 | 3.2 | 0.00 | 0.00 | 0.00 | 50 | 1014.2 |
| 20260906012739 | 31 | 90 | 0.0 | 0.0 | 0.00 | 0.00 | 0.00 | 49 | 1014.1 |
| 20260906012234 | 31 | 85 | 0.0 | 0.0 | 0.00 | 0.00 | 0.00 | 48 | 1014.2 |
| 20260906011729 | 31 | 100 | 1.6 | 1.6 | 0.00 | 0.00 | 0.00 | 47 | 1014.1 |
| 20260906011228 | 32 | 85 | 1.6 | 3.2 | 0.00 | 0.00 | 0.00 | 47 | 1014.3 |
| 20260906010724 | 31 | 77 | 0.0 | 3.2 | 0.00 | 0.00 | 0.00 | 48 | 1014.1 |
| 20260906010220 | 31 | 92 | 1.6 | 1.6 | 0.00 | 0.00 | 0.00 | 50 | 1014.0 |
| 20260906005715 | 32 | 44 | 0.0 | 0.0 | 0.00 | 0.00 | 0.00 | 50 | 1013.8 |
| 20260906005214 | 32 | 44 | 0.0 | 0.0 | 0.00 | 0.00 | 0.00 | 48 | 1013.8 |
| 20260906004713 | 32 | 44 | 0.0 | 0.0 | 0.00 | 0.00 | 0.00 | 47 | 1013.9 |
| 20260906004209 | 32 | 44 | 0.0 | 0.0 | 0.00 | 0.00 | 0.00 | 46 | 1013.9 |
| 20260906003704 | 32 | 44 | 0.0 | 0.0 | 0.00 | 0.00 | 0.00 | 46 | 1013.9 |
| 20260906003200 | 33 | 44 | 0.0 | 0.0 | 0.00 | 0.00 | 0.00 | 45 | 1013.8 |
| 20260906002659 | 33 | 44 | 0.0 | 1.6 | 0.00 | 0.00 | 0.00 | 45 | 1013.9 |
| 20260906002154 | 33 | 51 | 0.0 | 0.0 | 0.00 | 0.00 | 0.00 | 44 | 1014.0 |
| 20260906001650 | 33 | 51 | 0.0 | 0.0 | 0.00 | 0.00 | 0.00 | 44 | 1014.1 |
| 20260906001149 | 33 | 51 | 0.0 | 1.6 | 0.00 | 0.00 | 0.00 | 43 | 1013.9 |
| 20260906000645 | 34 | 79 | 1.6 | 3.2 | 0.00 | 0.00 | 0.00 | 42 | 1013.8 |
| 20260906000140 | 34 | 100 | 0.0 | 1.6 | 0.00 | 0.00 | 0.00 | 41 | 1014.0 |
| 20260905235639 | 34 | 49 | 0.0 | 3.2 | 0.00 | 0.00 | 0.00 | 41 | 1014.0 |
| 20260905235134 | 33 | 3 | 3.2 | 6.4 | 0.00 | 0.00 | 0.00 | 41 | 1014.0 |
| 20260905234630 | 34 | 121 | 0.0 | 0.0 | 0.00 | 0.00 | 0.00 | 40 | 1014.0 |
| 20260905234125 | 34 | 121 | 0.0 | 0.0 | 0.00 | 0.00 | 0.00 | 40 | 1013.7 |
| 20260905233620 | 35 | 121 | 0.0 | 0.0 | 0.00 | 0.00 | 0.00 | 39 | 1013.7 |
| 20260905233120 | 35 | 121 | 0.0 | 0.0 | 0.00 | 0.00 | 0.00 | 36 | 1013.6 |
| 20260905232616 | 35 | 121 | 0.0 | 0.0 | 0.00 | 0.00 | 0.00 | 35 | 1013.9 |
| 20260905232112 | 35 | 121 | 0.0 | 1.6 | 0.00 | 0.00 | 0.00 | 34 | 1014.0 |
| 20260905231612 | 36 | 122 | 0.0 | 1.6 | 0.00 | 0.00 | 0.00 | 34 | 1013.8 |
| 20260905231108 | 36 | 123 | 1.6 | 3.2 | 0.00 | 0.00 | 0.00 | 33 | 1013.7 |
| 20260905230603 | 36 | 47 | 1.6 | 1.6 | 0.00 | 0.00 | 0.00 | 32 | 1013.7 |
| 20260905225600 | 36 | 79 | 0.0 | 0.0 | 0.00 | 0.00 | 0.00 | 31 | 1013.9 |
| 20260905225056 | 36 | 69 | 0.0 | 1.6 | 0.00 | 0.00 | 0.00 | 32 | 1013.7 |
| 20260905224555 | 36 | 30 | 1.6 | 4.8 | 0.00 | 0.00 | 0.00 | 32 | 1013.8 |
| 20260905224055 | 36 | 27 | 3.2 | 3.2 | 0.00 | 0.00 | 0.00 | 32 | 1013.7 |
| 20260905223553 | 36 | 0 | 4.8 | 6.4 | 0.00 | 0.00 | 0.00 | 32 | 1013.7 |
| 20260905223049 | 36 | 9 | 3.2 | 6.4 | 0.00 | 0.00 | 0.00 | 32 | 1013.9 |
| 20260905222548 | 36 | 82 | 3.2 | 3.2 | 0.00 | 0.00 | 0.00 | 33 | 1013.7 |
| 20260905222044 | 36 | 73 | 0.0 | 3.2 | 0.00 | 0.00 | 0.00 | 33 | 1013.8 |
| 20260905221540 | 36 | 106 | 1.6 | 4.8 | 0.00 | 0.00 | 0.00 | 32 | 1013.8 |
| 20260905221036 | 36 | 113 | 1.6 | 3.2 | 0.00 | 0.00 | 0.00 | 34 | 1013.8 |
| 20260905220531 | 36 | 110 | 1.6 | 3.2 | 0.00 | 0.00 | 0.00 | 34 | 1014.0 |
| 20260905220027 | 36 | 250 | 3.2 | 3.2 | 0.00 | 0.00 | 0.00 | 33 | 1013.7 |
| 20260905215526 | 36 | 131 | 3.2 | 3.2 | 0.00 | 0.00 | 0.00 | 33 | 1013.9 |
| 20260905215023 | 36 | 151 | 3.2 | 4.8 | 0.00 | 0.00 | 0.00 | 33 | 1014.0 |
| 20260905214518 | 36 | 135 | 1.6 | 4.8 | 0.00 | 0.00 | 0.00 | 33 | 1014.2 |
| 20260905214013 | 36 | 150 | 3.2 | 4.8 | 0.00 | 0.00 | 0.00 | 33 | 1014.0 |
| 20260905213509 | 37 | 89 | 1.6 | 3.2 | 0.00 | 0.00 | 0.00 | 33 | 1014.0 |
| 20260905213004 | 37 | 80 | 0.0 | 1.6 | 0.00 | 0.00 | 0.00 | 32 | 1014.3 |
| 20260905212459 | 37 | 47 | 0.0 | 1.6 | 0.00 | 0.00 | 0.00 | 33 | 1014.1 |
| 20260905211958 | 37 | 66 | 0.0 | 6.4 | 0.00 | 0.00 | 0.00 | 33 | 1014.3 |
| 20260905211454 | 37 | 77 | 0.0 | 3.2 | 0.00 | 0.00 | 0.00 | 34 | 1014.3 |
| 20260905210949 | 37 | 86 | 1.6 | 3.2 | 0.00 | 0.00 | 0.00 | 34 | 1014.3 |
| 20260905210445 | 37 | 87 | 1.6 | 3.2 | 0.00 | 0.00 | 0.00 | 34 | 1014.3 |
| 20260905205944 | 37 | 74 | 1.6 | 3.2 | 0.00 | 0.00 | 0.00 | 36 | 1014.6 |
| 20260905205439 | 37 | 102 | 1.6 | 1.6 | 0.00 | 0.00 | 0.00 | 35 | 1014.7 |
| 20260905204938 | 38 | 45 | 1.6 | 6.4 | 0.00 | 0.00 | 0.00 | 33 | 1014.7 |
| 20260905204434 | 37 | 132 | 3.2 | 3.2 | 0.00 | 0.00 | 0.00 | 36 | 1014.6 |
| 20260905203932 | 37 | 106 | 1.6 | 1.6 | 0.00 | 0.00 | 0.00 | 38 | 1014.9 |
| 20260905203428 | 37 | 96 | 1.6 | 1.6 | 0.00 | 0.00 | 0.00 | 35 | 1014.9 |
| 20260905202924 | 37 | 120 | 1.6 | 4.8 | 0.00 | 0.00 | 0.00 | 35 | 1015.2 |
| 20260905202419 | 37 | 89 | 1.6 | 4.8 | 0.00 | 0.00 | 0.00 | 36 | 1014.9 |
| 20260905201914 | 37 | 105 | 3.2 | 6.4 | 0.00 | 0.00 | 0.00 | 35 | 1015.2 |
| 20260905201410 | 37 | 350 | 6.4 | 11.3 | 0.00 | 0.00 | 0.00 | 36 | 1015.1 |
| 20260905200909 | 37 | 115 | 1.6 | 4.8 | 0.00 | 0.00 | 0.00 | 37 | 1015.1 |
| 20260905200405 | 37 | 194 | 3.2 | 11.3 | 0.00 | 0.00 | 0.00 | 37 | 1015.1 |
| 20260905195903 | 37 | 29 | 0.0 | 3.2 | 0.00 | 0.00 | 0.00 | 36 | 1015.4 |
| 20260905195359 | 37 | 83 | 0.0 | 3.2 | 0.00 | 0.00 | 0.00 | 36 | 1015.5 |
| 20260905194854 | 37 | 90 | 0.0 | 3.2 | 0.00 | 0.00 | 0.00 | 37 | 1015.7 |
| 20260905194354 | 36 | 68 | 0.0 | 3.2 | 0.00 | 0.00 | 0.00 | 38 | 1015.6 |
| 20260905193854 | 35 | 107 | 3.2 | 3.2 | 0.00 | 0.00 | 0.00 | 41 | 1015.8 |
| 20260905193348 | 35 | 92 | 1.6 | 3.2 | 0.00 | 0.00 | 0.00 | 42 | 1015.8 |
| 20260905192844 | 35 | 62 | 0.0 | 1.6 | 0.00 | 0.00 | 0.00 | 40 | 1015.4 |
| 20260905192340 | 36 | 75 | 1.6 | 1.6 | 0.00 | 0.00 | 0.00 | 40 | 1015.7 |
| 20260905191839 | 36 | 46 | 1.6 | 6.4 | 0.00 | 0.00 | 0.00 | 38 | 1015.7 |
| 20260905191338 | 36 | 0 | 6.4 | 6.4 | 0.00 | 0.00 | 0.00 | 39 | 1015.7 |
| 20260905190837 | 36 | 162 | 6.4 | 9.7 | 0.00 | 0.00 | 0.00 | 39 | 1016.2 |
| 20260905190336 | 36 | 95 | 1.6 | 3.2 | 0.00 | 0.00 | 0.00 | 41 | 1016.2 |
| 20260905185835 | 36 | 41 | 1.6 | 3.2 | 0.00 | 0.00 | 0.00 | 38 | 1016.2 |
| 20260905185331 | 37 | 11 | 3.2 | 6.4 | 0.00 | 0.00 | 0.00 | 37 | 1016.4 |
| 20260905184830 | 38 | 322 | 6.4 | 9.7 | 0.00 | 0.00 | 0.00 | 35 | 1016.3 |
| 20260905184329 | 37 | 71 | 1.6 | 1.6 | 0.00 | 0.00 | 0.00 | 37 | 1016.6 |
| 20260905183828 | 37 | 353 | 4.8 | 6.4 | 0.00 | 0.00 | 0.00 | 36 | 1016.5 |
| 20260905183323 | 37 | 129 | 6.4 | 6.4 | 0.00 | 0.00 | 0.00 | 38 | 1016.5 |
| 20260905182818 | 37 | 71 | 1.6 | 4.8 | 0.00 | 0.00 | 0.00 | 40 | 1016.6 |
| 20260905182318 | 37 | 218 | 3.2 | 4.8 | 0.00 | 0.00 | 0.00 | 38 | 1016.7 |
| 20260905181813 | 36 | 194 | 3.2 | 4.8 | 0.00 | 0.00 | 0.00 | 40 | 1016.7 |
| 20260905181312 | 36 | 24 | 1.6 | 1.6 | 0.00 | 0.00 | 0.00 | 40 | 1016.9 |
| 20260905180812 | 36 | 117 | 3.2 | 4.8 | 0.00 | 0.00 | 0.00 | 41 | 1017.2 |
| 20260905180307 | 37 | 101 | 3.2 | 4.8 | 0.00 | 0.00 | 0.00 | 40 | 1017.1 |
| 20260905175802 | 37 | 109 | 1.6 | 4.8 | 0.00 | 0.00 | 0.00 | 42 | 1016.9 |
| 20260905175256 | 36 | 89 | 1.6 | 3.2 | 0.00 | 0.00 | 0.00 | 44 | 1017.1 |
| 20260905174752 | 35 | 32 | 1.6 | 1.6 | 0.00 | 0.00 | 0.00 | 42 | 1017.0 |
| 20260905174247 | 36 | 11 | 1.6 | 3.2 | 0.00 | 0.00 | 0.00 | 41 | 1017.3 |
| 20260905173743 | 36 | 91 | 1.6 | 3.2 | 0.00 | 0.00 | 0.00 | 40 | 1017.3 |
| 20260905173239 | 36 | 351 | 3.2 | 9.7 | 0.00 | 0.00 | 0.00 | 40 | 1017.2 |
| 20260905172733 | 36 | 18 | 1.6 | 9.7 | 0.00 | 0.00 | 0.00 | 41 | 1017.3 |